Starlink 2624

operational
NORAD ID: 48358 Int'l Des: 2021-038 Owner: SPXS Country: US Constellation: starlink
LEOCIRCULARSTARLINK_TYPE

Starlink 2624について

説明を読み込み中...

リアルタイム位置

3D地球を読み込み中...

次回通過

高度履歴

Altitude vs Time

uPlot chart will show altitude changes over time

軌道要素

1 48358U 21038F 25296.11298152 .00010467 00000-0 72007-3 0 9992
2 48358 53.0533 259.2258 0001571 82.3524 277.7643 15.06422586246287
Epoch: Oct 23, 2025 • Age: 41 hours

現在のステータス

高度 548.1 km
速度 7.59 km/s
衛星直下点 -1.28°S, 84.51°W
打ち上げ日 May 4, 2021
運用期間 4.4 years
タイプ internet

技術仕様

分類 Payload
質量 260.00 kg
乾燥質量 248.00 kg
総質量 260.00 kg
長さ 0.20 m
直径 2.80 m
スパン 9.00 m
形状 Box + pan
製造者 SPXS
バスタイプ Starlink
フェーズステータス In Orbit
所有者/国 SPXS/US

大規模コンステレーション

Loading constellations...